Home   Weather   Iserlohn   Past weeks

Flag for Germany Past Weather in Iserlohn, North Rhine-Westphalia, Germany — Yesterday and Last 2 Weeks

Now
39 °F

Clear.


Feels Like: 35 °F
Forecast: 29 / 48 °F
Wind: 6 mph from North

Location: Dortmund / Wickede

Current Time: Apr 26, 2017 at 11:34:53 pm

Latest Report: Apr 26, 2017 at 9:50 pm


Visibility: 10 mi

Pressure: 29.92 "Hg

Humidity: 70%

Dew Point: 30 °F

Location of IserlohnLocation

Past Weather in Iserlohn — Graph

°F

Iserlohn Temperature Yesterday

Maximum temperature yesterday: 48 °F (at 4:20 pm)
Minimum temperature yesterday: 39 °F (at 5:20 am)
Average temperature yesterday: 43 °F

High & Low Weather Summary for the Past Weeks

 TemperatureHumidityPressure
High57 °F (Apr 24, 2:50 pm)93% (Apr 14, 6:50 am)30.60 "Hg (Apr 14, 6:50 am)
Low25 °F (Apr 20, 5:20 am)28% (Apr 20, 3:20 pm)29.68 "Hg (Apr 25, 5:20 am)
Average44 °F65%30.11 "Hg
* Reported Apr 11 9:20 pm — Apr 26 9:50 pm, Iserlohn, Weather by CustomWeather, © 2017

Note: Actual official high and low records may vary slightly from our data, if they occured in-between our weather recording intervals... More about our weather records

Advertising

Iserlohn Weather History for the Previous 24 Hours

Scroll right to see more
 ConditionsComfort  
Time TempWeatherWind HumidityBarometerVisibility
9:50 pm
Wed, Apr 26
39 °FClear.6 mph70%29.92 "Hg10 mi
9:20 pm41 °FPassing clouds.12 mph66%29.92 "HgN/A
8:50 pm43 °FClear.3 mph61%29.92 "Hg10 mi
8:20 pm43 °FSunny.6 mph61%29.89 "Hg10 mi
7:50 pm45 °FSunny.8 mph53%29.89 "Hg10 mi
7:20 pm45 °FSunny.7 mph49%29.89 "Hg10 mi
6:50 pm46 °FPassing clouds.5 mph43%29.89 "HgN/A
6:20 pm48 °FPassing clouds.6 mph40%29.89 "HgN/A
5:50 pm48 °FPassing clouds.8 mph40%29.89 "HgN/A
5:20 pm48 °FPassing clouds.8 mph46%29.89 "HgN/A
4:50 pm45 °FScattered showers. Passing clouds.9 mph53%29.89 "HgN/A
4:20 pm45 °FScattered showers. Passing clouds.13 mph61%29.89 "HgN/A
3:50 pm46 °FScattered clouds.16 mph57%29.89 "HgN/A
3:20 pm50 °FScattered showers. Passing clouds.1 mph37%29.86 "HgN/A
2:50 pm46 °FPassing clouds.5 mph50%29.86 "HgN/A
2:20 pm48 °FPassing clouds.6 mph54%29.86 "HgN/A
1:50 pm46 °FScattered clouds.6 mph57%29.89 "HgN/A
1:20 pm43 °FScattered clouds.10 mph61%29.89 "HgN/A
12:50 pm43 °FPartly sunny.7 mph61%29.89 "HgN/A
12:20 pm43 °FPartly sunny.7 mph61%29.89 "HgN/A
11:50 am41 °FPartly sunny.10 mph70%29.86 "HgN/A
11:20 am43 °FPartly sunny.6 mph61%29.86 "HgN/A
10:50 am45 °FPartly sunny.6 mph61%29.86 "HgN/A
10:20 am41 °FPartly sunny.5 mph66%29.86 "HgN/A
9:50 am41 °FPartly sunny.3 mph66%29.86 "HgN/A
9:20 am39 °FPartly sunny.7 mph70%29.86 "HgN/A
8:50 am37 °FPartly sunny.7 mph75%29.86 "HgN/A
8:20 am37 °FPartly sunny.9 mph75%29.86 "HgN/A
7:50 am36 °FPartly sunny.8 mph81%29.86 "HgN/A
7:20 am34 °FScattered clouds.8 mph81%29.83 "HgN/A
6:50 am32 °FSunny.9 mph87%29.83 "Hg10 mi
6:20 am32 °FSunny.8 mph87%29.83 "Hg10 mi
5:50 am32 °FClear.8 mph87%29.83 "Hg10 mi
5:20 am32 °FClear.8 mph87%29.83 "Hg10 mi
Weather by CustomWeather, © 2017

See weather overviewHow to use our weather pages